Regional Weather Roundup
Issued by NWS

Home | Current Version | Previous Version | Text Only | Print | Product List | Glossary Off
Versions: 1 2 3 4 5 6 7 8 9 10 11 12 13 14 15 16 17 18 19 20 21 22 23 24 25 26 27 28 29 30 31 32 33 34 35 36 37 38 39 40 41 42 43 44 45 46 47 48 49 50

000
ASUS43 KOAX 272310
RWRNE

WEATHER ROUNDUP FOR NEBRASKA
NATIONAL WEATHER SERVICE OMAHA NE
600 PM CDT SUN MAY 27 2018

NOTES: SATELLITE DATA IS BEING USED TO AUGMENT CLOUD COVER ABOVE
       12000 FEET.
       "FAIR" INDICATES FEW OR NO CLOUDS BELOW 12,000 FEET WITH NO
       SIGNIFICANT WEATHER AND/OR OBSTRUCTIONS TO VISIBILITY.


NEZ001>004-019>022-054>056-280000-
NEBRASKA PANHANDLE

CITY           SKY/WX    TMP DP  RH WIND       PRES   REMARKS
SCOTTSBLUFF    CLOUDY    80  62  54 SE9       29.81F
ALLIANCE       CLOUDY    84  63  49 E10       29.82F
CHADRON        PTSUNNY   80  62  54 NE16      29.84F
GORDON         FAIR      84  64  51 N15       29.85R
KIMBALL        CLOUDY    77  43  29 SE15      29.82F
SIDNEY         CLOUDY    79  60  52 SE14      29.82F
$$

NEZ057>060-069>072-079>082-280000-
SOUTHWEST NEBRASKA

CITY           SKY/WX    TMP DP  RH WIND       PRES   REMARKS
NORTH PLATTE   CLOUDY    83  59  44 SE10      29.79F
IMPERIAL       CLOUDY    87  58  37 SE14G20   29.74F
LEXINGTON      PTSUNNY   88  55  32 S20       29.81S
MCCOOK         CLOUDY    89  56  32 SE18G31   29.75F
OGALLALA       TSTM      68  58  72 NE7       29.84F
$$

NEZ005>010-023>029-035>040-094-280000-
NORTH CENTRAL NEBRASKA

CITY           SKY/WX    TMP DP  RH WIND       PRES   REMARKS
VALENTINE      PTSUNNY   93  61  34 S16G24    29.79F HX  93
AINSWORTH      MOSUNNY   85  61  44 S10       29.82R
BROKEN BOW     MOSUNNY   88  58  36 SE14      29.82F
O`NEILL        MOSUNNY   92  58  32 S10       29.81S HX  91
ORD            MOSUNNY   93  55  27 S13G20    29.78F HX  91
THEDFORD       CLOUDY    87  57  36 SE8       29.84R
$$

NEZ041-046>049-061>064-073>077-083>087-280000-
SOUTH CENTRAL NEBRASKA

CITY           SKY/WX    TMP DP  RH WIND       PRES   REMARKS
GRAND ISLAND   SUNNY     95  54  25 S20       29.81F HX  93
AURORA         SUNNY     94  51  23 S13G24    29.81F HX  91
HASTINGS       SUNNY     93  52  24 S21G32    29.82F HX  90
HEBRON         SUNNY     97  51  20 S17G23    29.82F HX  94
HOLDREGE       SUNNY     91  56  30 SE24G31   29.81F
KEARNEY        SUNNY     92  53  26 S21G31    29.81F
YORK           SUNNY     95  50  21 S15G23    29.82F HX  92
$$

NEZ011>018-030>034-042>045-280000-
NORTHEAST NEBRASKA

CITY           SKY/WX    TMP DP  RH WIND       PRES   REMARKS
NORFOLK        PTSUNNY   96  54  24 S12       29.78F HX  94
ALBION         MOSUNNY   96  55  25 S13G20    29.81F HX  94
BLAIR          MOSUNNY   97  59  28 SW15G23   29.83S HX  96
COLUMBUS       MOSUNNY   98  55  23 S18       29.81S HX  96
FREMONT        CLOUDY    97  55  24 S8        29.82F HX  95
TEKAMAH        MOSUNNY  100  56  23 S15G21    29.79F HX  99
WAYNE          MOSUNNY   92  54  28 S10G22    29.81F
$$

NEZ050>053-065>068-078-088>093-280000-
SOUTHEAST NEBRASKA

CITY           SKY/WX    TMP DP  RH WIND       PRES   REMARKS
LINCOLN        CLOUDY    94  57  28 S15       29.82F HX  92
OMAHA EPPLEY   PTSUNNY   99  57  24 S12       29.80S HX  98
BEATRICE       MOSUNNY   95  63  34 S12       29.83F HX  96
FALLS CITY     CLOUDY    94  59  31 S12       29.82S HX  93
NEBRASKA CITY  PTSUNNY   95  61  31 SW14G21   29.83S HX  95
PLATTSMOUTH    MOSUNNY   97  59  28 S8        29.83S HX  96
$$

NEZ044-045-051>053-067-280000-
OMAHA AREA

CITY           SKY/WX    TMP DP  RH WIND       PRES   REMARKS
OMAHA EPPLEY   PTSUNNY   99  57  24 S12       29.80S HX  98
BLAIR          MOSUNNY   97  59  28 SW15G23   29.83S HX  96
FREMONT        CLOUDY    97  55  24 S8        29.82F HX  95
MILLARD        CLOUDY    97  62  31 W8        29.81S HX  98
OFFUTT AFB     MOSUNNY   98  59  27 S9        29.80S HX  97
PLATTSMOUTH    MOSUNNY   97  59  28 S8        29.83S HX  96
WAHOO          FAIR      98  48  18 SW10      29.82S HX  94
$$




USA.gov is the U.S. government's official web portal to all federal, state and local government web resources and services.